{"data":{"norad_id":51968,"intl_designator":"2022-025N","name":"STARLINK-3681","alt_names":[],"object_type":"PAYLOAD","status":"ACTIVE","operator":null,"country":"US","launch_date":"2022-03-09","launch_site_code":"AFETR","launch_vehicle":null,"mission":null,"orbit_class":"UNKNOWN","rcs_meters":null,"size_class":null,"mass_kg":null,"dimensions":null,"purposes":["comms"],"wikipedia_slug":null,"has_3d_model":false,"image_url":null,"decayed_at":null,"tle_current":{"epoch":"2026-09-19T11:36:28.744992Z","epoch_age_seconds":143325,"freshness":"FRESH","line1":"1 51968U 22025N   26262.48366603  .00000856  00000+0  39368-4 0  9995","line2":"2 51968  53.1613 202.4017 0001409 103.6821 256.4338 15.31690560250713","mean_motion":15.3169056,"eccentricity":0.0001409,"inclination_deg":53.1613,"raan_deg":202.4017,"arg_perigee_deg":103.6821,"mean_anomaly_deg":256.4338,"bstar":3.9368e-5,"rev_number":25071,"period_min":94.013767376095,"perigee_km":469.80312478536,"apogee_km":471.73314625255,"semimajor_km":6848.905135519,"source":"CELESTRAK","updated_at":"2026-09-20T09:00:39.977085Z"}}}